MOLNIYA 3-42

Last updated on Nov. 14, 2019, 4:22 a.m. UTC

1 22178U 92067A   19316.21163073 -.00000109  00000-0  00000-0 0  9998
2 22178  64.6930 327.4885 6823478 280.1096  14.7778  2.20433658 59271
UTC
Height (km)
Latitude
Longitude
Inclination
Orbital Period
UTC large
Height (km)
Speed (km/s)
/
Latitude / Longitude
Inclination (degrees)
Orbital Period (minutes)
Azimuth
Elevation
Range (km)
Doppler Factor
iOS Compass Heading
iOS Angle

Next 30 passes for location: Hong Kong

Rise time Rise Azimuth (degrees) Set time Set Azimuth (degrees) Duration Max altitude (degrees)

No matching passes for this satellites